Tuttle Creek Lake Weather Center

Moon Phase Calendar



Tuttle Creek Lake Water Level
Online Cameras

 


      

Current Conditions in Riley
7/15/2024 8:22:11 PM

94°F
Feels Like 107
Clouds
Humidity
58%
Pressure
29.62"
Wind
15.8 mph (NNE)
Dew Point
77°F
UV Index
0/10 (Low)
Visibility
6 mi

Hourly Forecast

Date & Time Mon, Jul 15
8:00 PM
Mon, Jul 15
9:00 PM
Mon, Jul 15
10:00 PM
Mon, Jul 15
11:00 PM
Tue, Jul 16
12:00 AM
Tue, Jul 16
1:00 AM
Tue, Jul 16
2:00 AM
Tue, Jul 16
3:00 AM
Tue, Jul 16
4:00 AM
Tue, Jul 16
5:00 AM
Tue, Jul 16
6:00 AM
Tue, Jul 16
7:00 AM
Tue, Jul 16
8:00 AM
Tue, Jul 16
9:00 AM
Tue, Jul 16
10:00 AM
Tue, Jul 16
11:00 AM
Tue, Jul 16
12:00 PM
Tue, Jul 16
1:00 PM
Tue, Jul 16
2:00 PM
Tue, Jul 16
3:00 PM
Tue, Jul 16
4:00 PM
Tue, Jul 16
5:00 PM
Tue, Jul 16
6:00 PM
Tue, Jul 16
7:00 PM
Tue, Jul 16
8:00 PM
Tue, Jul 16
9:00 PM
Tue, Jul 16
10:00 PM
Tue, Jul 16
11:00 PM
Wed, Jul 17
12:00 AM
Wed, Jul 17
1:00 AM
Wed, Jul 17
2:00 AM
Wed, Jul 17
3:00 AM
Wed, Jul 17
4:00 AM
Wed, Jul 17
5:00 AM
Wed, Jul 17
6:00 AM
Wed, Jul 17
7:00 AM
Wed, Jul 17
8:00 AM
Wed, Jul 17
9:00 AM
Wed, Jul 17
10:00 AM
Wed, Jul 17
11:00 AM
Wed, Jul 17
12:00 PM
Wed, Jul 17
1:00 PM
Wed, Jul 17
2:00 PM
Wed, Jul 17
3:00 PM
Wed, Jul 17
4:00 PM
Wed, Jul 17
5:00 PM
Wed, Jul 17
6:00 PM
Wed, Jul 17
7:00 PM
Condition
Clouds

Clouds

Clouds

Clouds

Clouds

Clouds

Clouds

Clouds

Rain

Rain

Clouds

Rain

Rain

Clouds

Clouds

Clouds

Clouds

Clouds

Clouds

Clouds

Clouds

Clouds

Clouds

Clouds

Clear

Clear

Clear

Clouds

Clouds

Clouds

Clouds

Clouds

Clouds

Clouds

Clouds

Clouds

Clouds

Clouds

Clouds

Clouds

Clouds

Clouds

Clouds

Clouds

Clouds

Clouds

Clouds

Clouds
Temperature 94°F93°F91°F89°F85°F83°F82°F81°F79°F76°F74°F73°F75°F76°F78°F82°F85°F89°F91°F91°F90°F89°F88°F85°F82°F77°F75°F73°F72°F71°F71°F70°F70°F70°F68°F68°F70°F72°F74°F73°F76°F79°F80°F81°F82°F83°F81°F79°F
Feels Like 107°F106°F103°F98°F94°F89°F88°F86°F79°F77°F75°F74°F76°F77°F80°F86°F90°F92°F94°F94°F91°F90°F89°F87°F85°F78°F76°F74°F73°F72°F72°F70°F71°F70°F69°F69°F70°F73°F74°F73°F76°F79°F81°F82°F82°F82°F81°F79°F
Cloudiness 30%28%24%29%34%46%100%62%68%78%83%83%100%100%100%100%100%100%31%66%76%83%78%70%1%1%9%30%40%48%79%75%84%88%90%92%100%100%100%100%100%86%28%38%39%35%30%27%
Visibility 6 mi6 mi6 mi6 mi6 mi6 mi6 mi6 mi6 mi6 mi6 mi6 mi6 mi6 mi6 mi6 mi6 mi6 mi6 mi6 mi6 mi6 mi6 mi6 mi6 mi6 mi6 mi6 mi6 mi6 mi6 mi6 mi6 mi6 mi6 mi6 mi6 mi6 mi6 mi6 mi6 mi6 mi6 mi6 mi6 mi6 mi6 mi6 mi
Precipitation 0%0%0%0%0%0%0%3%100%100%80%100%54%37%25%14%5%0%0%0%0%0%0%0%0%0%0%0%0%0%0%0%0%0%0%0%0%0%0%0%0%0%0%0%0%0%0%0%
Humidity 58%59%62%63%70%75%78%81%84%81%86%90%87%84%81%71%60%51%45%42%42%44%46%51%59%71%79%82%83%84%85%86%81%83%86%86%82%77%74%71%61%55%51%48%44%42%43%47%
Dew Point 77°F77°F76°F74°F75°F74°F74°F74°F73°F69°F69°F69°F70°F70°F71°F71°F70°F68°F66°F65°F64°F64°F64°F65°F66°F67°F67°F67°F66°F66°F66°F65°F64°F64°F64°F63°F64°F64°F64°F62°F61°F61°F60°F59°F58°F57°F56°F57°F
Pressure 29.62"29.62"29.65"29.68"29.71"29.74"29.77"29.77"29.77"29.74"29.77"29.83"29.88"29.83"29.83"29.83"29.85"29.85"29.85"29.83"29.83"29.83"29.83"29.8"29.8"29.85"29.88"29.91"29.94"29.91"29.91"29.91"29.97"29.97"30"30"30.03"30.06"30.06"30.09"30.09"30.09"30.09"30.09"30.09"30.09"30.06"30.06"
Wind Speed 15.8 mph17.6 mph16.6 mph12.8 mph12.8 mph14.3 mph10.7 mph7.4 mph20.3 mph16.6 mph12.8 mph2.8 mph7.1 mph10 mph12.3 mph11 mph7 mph7.2 mph8.8 mph10.3 mph10.5 mph10.8 mph12.5 mph12.7 mph9.6 mph8.3 mph8.3 mph9.6 mph8.3 mph7.8 mph9.5 mph10.1 mph8.6 mph10.6 mph7.3 mph9.5 mph11.5 mph12.5 mph13.8 mph15 mph14.9 mph14.5 mph14.2 mph12.8 mph12.4 mph13.3 mph14 mph14.6 mph
Wind
Direction
27°
NNE
34°
NE
27°
NNE
22°
NNE
16°
NNE
28°
NNE
36°
NE
33°
NNE
16°
NNE
47°
NE
351°
N
315°
NW
284°
WNW
55°
NE
78°
ENE
71°
ENE
84°
E
91°
E
84°
E
81°
E
67°
ENE
63°
ENE
73°
ENE
84°
E
82°
E
62°
ENE
56°
NE
51°
NE
53°
NE
70°
ENE
50°
NE
53°
NE
49°
NE
34°
NE
34°
NE
30°
NNE
45°
NE
46°
NE
40°
NE
34°
NE
35°
NE
39°
NE
43°
NE
54°
NE
59°
ENE
57°
ENE
53°
NE
51°
NE

Daily Forecast

Date High Low Precip. Humidity
Today
Jul 15

Clouds
108 °F
76 °F
0%
25%
Tuesday
Jul 16

Rain
91 °F
73 °F
100%
51%
Wednesday
Jul 17

Clouds
83 °F
65 °F
0%
55%
Thursday
Jul 18

Clear
81 °F
57 °F
0%
40%
Friday
Jul 19

Clear
86 °F
59 °F
0%
39%
Saturday
Jul 20

Rain
74 °F
65 °F
99%
68%
Sunday
Jul 21

Rain
80 °F
64 °F
35%
56%
Monday
Jul 22

Rain
80 °F
63 °F
77%
54%
Tuesday
Jul 23

Rain
84 °F
64 °F
39%
56%
Wednesday
Jul 24

Clouds
91 °F
68 °F
0%
39%
Thursday
Jul 25

Clear
92 °F
69 °F
0%
43%
Friday
Jul 26

Clear
96 °F
70 °F
0%
36%
Saturday
Jul 27

Clear
107 °F
78 °F
0%
28%
Sunday
Jul 28

Clear
106 °F
81 °F
0%
29%
Monday
Jul 29

Rain
107 °F
77 °F
100%
29%
Tuesday
Jul 30

Rain
110 °F
80 °F
100%
25%

Temperature 8-14 Day Outlook



Precipitation 8-14 Day Outlook






About Us
Contact Us
Site Map
Search Site
Advertise With Us
   
TuttleCreek.LakesOnline.com
THE TUTTLE CREEK LAKE WEBSITE

Copyright 2024, Lakes Online
Privacy    |    Legal